Location: Blackie
(50.6050°N, 113.6230°W)
Time: 11:53:04
(UTC+00:00)

ISS - Pass Details

Date: 06 December 2021
Orbit: 413 x 422 km, 51.6° (Epoch: 19 January)

Event Time Altitude Azimuth Distance (km) Brightness Sun altitude
Rises 01:25:27 0° 286° (WNW) 2,383 1.1 -17.2°
Reaches altitude 10° 01:27:43 10° 275° (W) 1,513 0.2 -17.6°
Maximum altitude 01:30:43 29° 213° (SSW) 801 -1.9 -18.0°
Enters shadow 01:33:12 13° 155° (SSE) 1,327 -1.4 -18.4°
